Regional Weather Roundup
Issued by NWS

Home | Current Version | Previous Version | Graphics & Text | Print | Product List | Glossary On
Versions: 1 2 3 4 5 6 7 8 9 10 11 12 13 14 15 16 17 18 19 20 21 22 23 24 25 26 27 28 29 30 31 32 33 34 35 36 37 38 39 40 41 42 43 44 45 46 47 48 49 50
192
ASUS43 KOAX 251802
RWRNE

WEATHER ROUNDUP FOR NEBRASKA
NATIONAL WEATHER SERVICE OMAHA NE
100 PM CDT SUN JUN 25 2017

NOTES: SATELLITE DATA IS BEING USED TO AUGMENT CLOUD COVER ABOVE
       12000 FEET.
       "FAIR" INDICATES FEW OR NO CLOUDS BELOW 12,000 FEET WITH NO
       SIGNIFICANT WEATHER AND/OR OBSTRUCTIONS TO VISIBILITY.

  * THESE STATIONS DO NOT REPORT WEATHER SUCH AS RAIN...SNOW OR FOG.

NEZ001>004-019>022-054>056-251900-
NEBRASKA PANHANDLE

CITY           SKY/WX    TMP DP  RH WIND       PRES   REMARKS
SCOTTSBLUFF    SUNNY     73  41  31 E9        30.32F
6HR MIN TEMP:  54; 6HR MAX TEMP:  73; 6HR PCP: TRACE;

ALLIANCE       SUNNY     71  40  32 VRB7G17   30.33F
6HR MIN TEMP:  52; 6HR MAX TEMP:  71; 6HR PCP: TRACE;

CHADRON        SUNNY     74  39  28 S7        30.29F
6HR MIN TEMP:  50; 6HR MAX TEMP:  74;

GORDON         FAIR      71  39  31 S7        30.32F
6HR MIN TEMP:  50; 6HR MAX TEMP:  71;

SIDNEY         MOSUNNY   69  44  40 SE14G23   30.36F
6HR MIN TEMP:  51; 6HR MAX TEMP:  69;

$$

NEZ057>060-069>072-079>082-251900-
SOUTHWEST NEBRASKA

CITY           SKY/WX    TMP DP  RH WIND       PRES   REMARKS
NORTH PLATTE   SUNNY     70  40  33 SE13      30.34F
6HR MIN TEMP:  55; 6HR MAX TEMP:  72; 6HR PCP:  0.02;

IMPERIAL       LGT RAIN  63  41  44 SE15      30.34F
6HR MIN TEMP:  52; 6HR MAX TEMP:  66; 6HR PCP:  0.02;

LEXINGTON      CLOUDY    70  38  30 SE9       30.34F
MCCOOK         CLOUDY    69  45  41 E14       30.34F
6HR MIN TEMP:  54; 6HR MAX TEMP:  69;

OGALLALA       SUNNY     75  43  31 E12G17    30.33F
$$

NEZ005>010-023>029-035>040-094-251900-
NORTH CENTRAL NEBRASKA

CITY           SKY/WX    TMP DP  RH WIND       PRES   REMARKS
VALENTINE      SUNNY     74  27  17 VRB7      30.31F
6HR MIN TEMP:  47; 6HR MAX TEMP:  75;

AINSWORTH      SUNNY     70  37  29 CALM      30.33F
BROKEN BOW     SUNNY     72  39  30 SE7       30.34F
6HR MIN TEMP:  53; 6HR MAX TEMP:  72;

O`NEILL        SUNNY     70  36  28 N6        30.33F
ORD            SUNNY     73  32  22 VRB5      30.32F
6HR MIN TEMP:  50; 6HR MAX TEMP:  73;

THEDFORD       SUNNY     74  36  24 E3        30.33F
$$

NEZ041-046>049-061>064-073>077-083>087-251900-
SOUTH CENTRAL NEBRASKA

CITY           SKY/WX    TMP DP  RH WIND       PRES   REMARKS
GRAND ISLAND   SUNNY     72  41  32 N3        30.34F
6HR MIN TEMP:  53; 6HR MAX TEMP:  72;

AURORA         SUNNY     71  38  30 CALM      30.34F
HASTINGS       CLOUDY    70  40  33 VRB6      30.36F
6HR MIN TEMP:  55; 6HR MAX TEMP:  70; 6HR PCP: TRACE;

HEBRON         CLOUDY    67  48  50 CALM      30.34F
HOLDREGE       CLOUDY    61  49  63 E7        30.35F
KEARNEY *      CLOUDY    70  39  32 NE6       30.35F
YORK           SUNNY     72  39  30 N9        30.33F
$$

NEZ011>018-030>034-042>045-251900-
NORTHEAST NEBRASKA

CITY           SKY/WX    TMP DP  RH WIND       PRES   REMARKS
NORFOLK        SUNNY     70  40  33 N13G18    30.31F
6HR MIN TEMP:  49; 6HR MAX TEMP:  70;

ALBION         SUNNY     73  35  25 NW10G16   30.32F
BLAIR          SUNNY     69  43  38 NW12G17   30.30F
FREMONT        SUNNY     70  41  34 NW10G22   30.31F
TEKAMAH        SUNNY     73  40  30 NW18      30.30F
6HR MIN TEMP:  52; 6HR MAX TEMP:  73;

WAYNE          SUNNY     69  39  33 NW12G17   30.30F
$$

NEZ050>053-065>068-078-088>093-251900-
SOUTHEAST NEBRASKA

CITY           SKY/WX    TMP DP  RH WIND       PRES   REMARKS
LINCOLN        SUNNY     73  42  32 NW9       30.32F
6HR MIN TEMP:  56; 6HR MAX TEMP:  73;

OMAHA EPPLEY   MOSUNNY   71  42  35 NW13      30.29F
6HR MIN TEMP:  57; 6HR MAX TEMP:  72;

BEATRICE       CLOUDY    71  46  40 N6        30.32F
FALLS CITY     PTSUNNY   71  48  43 N7        30.30F
6HR MIN TEMP:  54; 6HR MAX TEMP:  71;

NEBRASKA CITY  PTSUNNY   69  46  43 N7        30.31F
PLATTSMOUTH    SUNNY     70  42  37 NW12G18   30.31F
$$

NEZ044-045-051>053-067-251900-
OMAHA AREA

CITY           SKY/WX    TMP DP  RH WIND       PRES   REMARKS
OMAHA EPPLEY   MOSUNNY   71  42  35 NW13      30.29F
6HR MIN TEMP:  57; 6HR MAX TEMP:  72;

BLAIR          SUNNY     69  43  38 NW12G17   30.30F
FREMONT        SUNNY     70  41  34 NW10G22   30.31F
MILLARD        SUNNY     71  45  38 NW14      30.30F
OFFUTT AFB     SUNNY     70  44  37 NW14      30.29F
PLATTSMOUTH    SUNNY     70  42  37 NW12G18   30.31F
WAHOO          FAIR      72  39  30 N14G23    30.31F
$$




USA.gov is the U.S. government's official web portal to all federal, state and local government web resources and services.